www.pogodaiklimat.ru
Время
(UTC), дата
00 20.01
03 20.01
06 20.01
09 20.01
12 20.01
15 20.01
18 20.01
21 20.01
00 21.01
03 21.01
06 21.01
09 21.01
12 21.01
15 21.01
18 21.01
21 21.01
00 22.01
03 22.01
06 22.01
09 22.01
12 22.01
15 22.01
18 22.01
21 22.01
00 23.01
03 23.01
06 23.01
09 23.01
12 23.01
15 23.01
18 23.01
21 23.01
00 24.01
03 24.01
06 24.01
09 24.01
12 24.01
15 24.01
18 24.01
21 24.01
00 25.01
03 25.01
06 25.01
09 25.01
12 25.01
15 25.01
18 25.01
21 25.01
00 26.01
03 26.01
06 26.01
09 26.01
12 26.01
15 26.01
18 26.01
21 26.01
Ветер
(напр.,м/с)
Видим. Явления Облачность Т
(С)
Тd
(С)
f
(%)
Тe
(С)
Тes
(С)
Комфортность P
(гПа)
Po
(гПа)
Тmin
(С)
Tmax
(С)
R
(мм)
R24
(мм)
S
(см)
ЮВ 2 н/о слаб. ливневой дождь 9/8 600 м
[Cb cap Ac As]
+4.5 +4.5 100 +2 +2 тепло 1020.0 994.6
ЮЗ 2 10 км {ливн. снег} 3/0
[Ac lent]
+0.9 +0.1 94 -3 -3 по сезону 1021.2 995.5
СВ 1 10 км {ливн. дождь} 10/0
[Cs]
+3.5 +2.5 93 +2 +5 тепло 1022.9 997.4 +0.8 0.6
штиль 0 10 км 10/0
[Ac As]
+7.8 +4.6 80 +7 +8 тепло 1021.1 996.0
СЗ 1 10 км 10/0
[Ac As]
+4.7 +3.7 93 +3 +3 тепло 1020.4 995.1
С 2 н/о 6/0
[Ac lent Ci sp]
+2.1 +1.3 94 -1 -1 по сезону 1020.0 994.5 +7.8
В 2 н/о 6/0
[Ci sp]
+3.0 +2.3 95 -0 -0 тепло 1017.1 991.7 +7.8
В 2 н/о 3/0
[Ci sp]
+3.7 +2.7 93 +1 +1 тепло 1014.5 989.2
штиль 0 н/о ясно +0.5 -0.3 94 -1 -1 тепло 1012.2 986.7
В 2 10 км 10/0
[Cs]
+2.8 +2.6 99 -1 -1 тепло 1010.4 985.1
штиль 0 10 км 9/0
[Ac lent Cs]
+8.7 +2.6 66 +8 +11 тепло 1009.3 984.6 -0.1
Ю 2 10 км 10/0
[Cs]
+10.7 +1.5 53 +10 +13 тепло 1006.4 981.9
СЗ 5 10 км 10/0
[Cs]
+4.8 +2.3 84 0 0 по сезону 1006.4 981.5
З 5 н/о 10/4 600 м
[Cb cap Ac As]
+1.4 +0.1 91 -4 -4 по сезону 1007.4 982.1 +11.0
ЮЗ 5 н/о 10/4 600 м
[Cb cap Ac As]
-0.5 -1.4 94 -7 -7 по сезону 1009.1 983.6 +11.0
штиль 11 н/о ливневой снег [диам. гололёда 2 мм] 10/10 600 м
[Cb cap]
-1.4 -1.6 99 -3 -3 по сезону 1008.6 983.0
СЗ 16-20
{22}
н/о ливневой снег {метель} ?/? -2.0 -2.0 100 -13 -13 прохладно 1012.8 987.0
СЗ 15-17
{20}
2000 м слаб. ливневой снег {метель} [диам. гололёда 2 мм] 10/10 600 м
[Cb cap]
-8.6 -8.6 100 -21 -21 очень
холодно
1024.9 998.0 6
С 5
{20}
10 км {ливн. снег, метель} 10/3 600 м
[Cb cap Ac As]
-9.8 -11.5 87 -18 -17 очень
холодно
1032.2 1005.0 -8.7 10
З 3 10 км 8/0
[Ac As Ci sp]
-8.4 -10.7 83 -14 -12 очень
холодно
1034.1 1007.1
штиль 0 10 км 6/0
[Ac As Ci sp]
-8.3 -10.2 86 -9 -9 холодно 1036.1 1009.0
ЮВ 1 н/о 9/6 600 м
[Cb cap Ac As]
-10.8 -11.2 97 -13 -13 очень
холодно
1041.1 1013.8 -8.0
ЮВ 2 н/о {ливн. снег} 6/3 600 м
[Cb cap Ac As]
-12.6 -13.1 96 -17 -17 очень
холодно
1041.4 1013.8 -8.0 0.0
ЮВ 1 н/о слаб. ливневой снег 10/10 600 м
[Cb cap]
-10.4 -10.8 97 -13 -13 холодно 1039.7 1012.4
Ю 6 н/о слаб. ливневой снег 10/10 600 м
[Cb cap]
-6.3 -6.7 97 -14 -14 холодно 1037.3 1010.5
ЮЗ 6 2000 м ливневой снег 10/10 600 м
[Cb cap]
-4.7 -5.0 98 -13 -13 холодно 1036.5 1009.8 7
ЮЗ 9 2000 м снег {ливн. снег} 10/10 600 м
[Ns]
-3.5 -4.0 96 -13 -12 холодно 1034.4 1007.7 -12.6 3
ЮЗ 15-18
{20}
н/о сильн. снег {метель} ?/? -3.3 -3.7 97 -14 -14 очень
холодно
1032.1 1005.6
ЮЗ 9
{18}
2000 м снег {метель} 10/10 600 м
[Ns]
-2.7 -3.1 97 -12 -12 очень
холодно
1033.6 1007.2
ЮЗ 7 н/о слаб. снег {метель} 10/10 600 м
[Ns]
-2.3 -2.6 98 -10 -10 холодно 1036.3 1009.9 -2.3
ЮЗ 6 н/о слаб. снег {метель} 10/10 600 м
[Ns]
-1.9 -2.2 98 -9 -9 по сезону 1037.1 1010.7 -2.3 7
ЮЗ 3 н/о слаб. снег 10/10 600 м
[Ns]
-1.7 -2.2 96 -7 -7 по сезону 1038.0 1011.7
ЮЗ 3 н/о слаб. снег 10/10 600 м
[Ns]
-1.6 -2.4 94 -7 -7 по сезону 1038.0 1011.7
штиль 0 10 км слаб. снег 10/10 600 м
[Ns]
-2.1 -3.0 94 -3 -3 по сезону 1038.5 1012.0 9
Ю 1 10 км {снег} 10/0
[As op]
-0.7 -2.0 91 -3 -2 по сезону 1039.0 1012.7 -2.3 0.8
В 2 10 км 10/0
[Ac As]
+0.2 -2.2 84 -3 -2 по сезону 1037.4 1011.3
В 2 10 км 10/0
[Ac As]
-0.2 -2.3 86 -4 -4 по сезону 1036.7 1010.5
СВ 2 н/о 10/0
[Ac As]
-0.7 -2.3 89 -5 -5 по сезону 1036.5 1010.2 +0.5
С 2 н/о 3/0
[Ac lent]
-3.5 -4.6 92 -8 -8 по сезону 1035.9 1009.4 +0.5 0.0
С 3 н/о ясно -6.4 -6.9 96 -12 -12 прохладно 1034.2 1007.5
С 2 н/о ясно -9.4 -10.6 91 -14 -14 холодно 1033.0 1006.0
С 1 50 км 1/0
[Ci fib]
-12.4 -13.4 92 -15 -15 очень
холодно
1033.3 1006.0 8
штиль 0 10 км 1/0
[Ci fib]
-4.5 -9.7 67 -5 0 по сезону 1033.0 1006.5 -12.4
З 1 50 км 3/0
[Ci fib]
-1.0 -6.0 69 -3 +2 по сезону 1031.4 1005.2
СЗ 1 50 км 3/0
[Ci fib]
-2.4 -4.6 85 -5 -5 прохладно 1031.6 1005.3
штиль 0 н/о 3/0
[Ci fib]
-7.9 -9.7 87 -9 -9 прохладно 1032.7 1005.8 -0.6
штиль 0 н/о 3/0
[Ci fib]
-9.9 -10.7 94 -10 -10 прохладно 1032.7 1005.7 -0.6
Ю 1 н/о дымка ясно -13.3 -13.5 98 -16 -16 очень
холодно
1032.5 1005.1
штиль 0 н/о дымка {туман} ясно -12.6 -12.9 98 -13 -13 холодно 1031.9 1004.5
штиль 0 2000 м дымка 1/0
[Ci fib]
-13.0 -13.2 98 -13 -13 холодно 1032.2 1004.9 7
штиль 0 10 км ясно -3.9 -5.1 91 -5 +1 по сезону 1021.4 1005.0 -14.4
З 2 10 км ясно -2.0 -5.5 77 -6 -2 прохладно 1030.4 1004.1
СЗ 1 10 км ясно -2.0 -5.9 75 -4 -4 по сезону 1030.1 1003.9
С 1 н/о ясно -6.4 -6.9 96 -9 -9 прохладно 1030.6 1003.9 -1.3
С 1 н/о ясно -7.4 -7.9 96 -10 -10 прохладно 1030.4 1003.6 -1.3
штиль 0 н/о ясно -11.6 -11.9 98 -12 -12 холодно 1030.2 1003.0
Местоположение метеостанции Туркестан (Южно-Казахстанская область, Казахстан): широта 43.27 долгота 68.22 высота над уровнем моря 207 м.
В архиве по умолчанию представлена погода в Туркестане за последнюю неделю. Архивные данные за месяц целиком и за предыдущие месяцы, начиная с января 2011 года, Вы можете получить, выбрав интересующий диапазон дат из раскрывающегося списка и нажав кнопку "Найти!".
*Определитесь, кто Вы:
Внимание! Время в таблицах - всемирное. Для получения местного времени необходимо прибавить поправку, которая равна 6 ч.
Смотрите также архив погоды в соседних городах и на ближайших метеорологических станциях:
Партнеры нашего сайта:      
Пояснения к столбцам:
  • Ветер - указаны скорость ветра в м/с - средняя за 10 мин, порывы в срок и между сроками (в фигурных скобках) и направление, откуда дует ветер: С - северный,
  • СВ - северо-восточный, В - восточный, ЮВ - юго-восточный, Ю - южный, ЮЗ - юго-западный, З - западный, СЗ - северо-западный.
  • Видимость - горизонтальная дальность видимости в метрах или километрах. При видимости от 1 до 10 км при отсутствии осадков обычно наблюдается дымка, при ухудшении видимости до 1 км и менее - туман. В сухую погоду видимость может ухудшаться дымом, пылью или мглою.
  • Явления - указаны атмосферные явления, наблюдавшиеся в срок или в последний час перед сроком; фигурными скобками обозначены явления, наблюдавшиеся между сроками (за 1-3 часа до срока); квадратными скобками обозначены град или гололедные отложения с указанием их диаметра в мм.
  • Облачность - указаны через наклонную черту общая и нижняя облачность в баллах и высота нижней границы облаков в метрах; квадратными скобками обозначены формы облаков: Ci - перистые, Cs - перисто-слоистые, Cc - перисто-кучевые, Ac - высококучевые, As - высокослоистые, Sc - слоисто-кучевые, Ns - слоисто-дождевые, Cu - кучевые, Cb - кучево-дождевые. Подробнее классификацию облаков см. в Атласе облаков (PDF).
  • T - Температура воздуха - температура, измеренная на высоте 2 м над землей.
  • Td - Температура точки росы - температура, при понижении до которой содержащийся в воздухе водяной пар достигнет насыщения.
  • f - Относительная влажность воздуха - влажноcть воздуха, измеренная на высоте 2 м над землей.
  • Te - Эффективная температура - температура, которую ощущает одетый по сезону человек в тени. Характеристика душности погоды. При расчете учитывается влияние влажности воздуха и скорости ветра на теплоощущения человека.
  • Tes - Эффективная температура на солнце - температура, которую ощущает человек, с поправкой на солнечный нагрев. Характеристика знойности погоды. Зависит от высоты солнца над горизонтом, облачности и скорости ветра. Ночью, в пасмурную погоду, а также при ветре 12 м/с и более поправка равна нулю.
  • P - Атмосферное давление - приведенное к уровню моря атмосферное давление.
  • Po - Атмосферное давление - измеренное на уровне метеостанции атмосферное давление.
  • Tmin - Минимальная температура - минимум температуры воздуха на высоте 2 м над землей.
  • Tmax - Максимальная температура - максимум температуры воздуха на высоте 2 м над землей.
  • R - Количество осадков - Количество выпавших осадков за период времени, мм. При наведении курсора мыши на число - период времени, за который выпало указанное количество осадков.
  • R24 - Количество осадков - Количество выпавших осадков за 24 часа, мм.
  • S - Снежный покров - Высота снежного покрова, см. При наведении курсора мыши на число - состояние снежного покрова и степень покрытия местности в баллах.